Tracking 28096 objects as of 29-Sep-2023
HD Live streaming from Space Station
objects crossing your sky now

STARLINK-5756

Track STARLINK-5756 now!
10-day predictions
STARLINK-5756 is classified as:


NORAD ID: 55598
Int'l Code: 2023-020AF
Perigee: 565.4 km
Apogee: 567.0 km
Inclination: 43.0 °
Period: 95.8 minutes
Semi major axis: 6937 km
RCS: Unknown
Launch date: February 12, 2023
Source: United States (US)
Launch site: AIR FORCE EASTERN TEST RANGE (AFETR)
Your satellite tracking list
Your tracking list is empty




NASA's NSSDC Master Catalog

Two Line Element Set (TLE):
1 55598U 23020AF  23271.82532587  .00004551  00000-0  35166-3 0  9993
2 55598  43.0022 163.7116 0001137 278.1643  81.9070 15.02541374 34759
Source of the keplerian elements: AFSPC